Other Surface Observations
Issued by NWS

Home | Current Version | Previous Version | Text Only | Print | Product List | Glossary On
Versions: 1 2 3 4 5 6 7 8 9 10 11 12 13 14 15 16 17 18 19 20 21 22 23 24 25 26 27 28 29 30 31 32 33 34 35 36 37 38 39 40 41 42 43 44 45 46 47 48 49 50
000
SXUS52 KTAE 012218
OSOTAE
OSOTAE
North Florida/South Alabama/Southwest Georgia Weather Roundup
National Weather Service Tallahassee Florida
600 PM EDT SAT OCT 01 2016

Note: "fair" indicates few or no clouds below 12,000 feet with no
significant weather and/or obstructions to visibility.

!FLZ017-115-028-034-025-012300
...North Florida...

CITY           SKY/WX    TMP DP  RH WIND       PRES   REMARKS
TALLAHASSEE    SUNNY     85  52  32 NW5       29.99F
APALACHICOLA   SUNNY     80  61  52 W7        30.00F
PERRY          SUNNY     84  54  35 W8        29.99F
CROSS CITY     SUNNY     84  61  45 NW6       29.98F
JACKSONVILLE   MOSUNNY   84  67  56 E8        29.97F
$$

!FLZ112-006-005-002-011-012300
...Florida Panhandle...

CITY           SKY/WX    TMP DP  RH WIND       PRES   REMARKS
MARIANNA       SUNNY     81  53  37 VRB3      30.00S
BONIFAY        FAIR      82  52  35 CALM      30.02S
PANAMA CITY NW FAIR      80  57  45 S7        30.00S
TYNDALL AFB    SUNNY     79  58  48 W9        30.01S
TYND DRONE APT FAIR      78  60  53 W7        30.01S
DE FUNIAK SPR  FAIR      79  52  39 CALM      30.03S
EGLIN AFB      MOSUNNY   80  56  43 SE9       30.01S
DESTIN         SUNNY     82  56  40 VRB5      30.01F
HURLBURT       SUNNY     79  55  43 S9        30.00F
CRESTVIEW      SUNNY     82  52  35 CALM      30.03S
PENSACOLA      SUNNY     83  55  38 CALM      30.01S
$$

!ALZ063-066-012300
...South Alabama...

CITY           SKY/WX    TMP DP  RH WIND       PRES   REMARKS
DOTHAN         SUNNY     83  50  31 N6        30.04F
OZARK CAIRNS   SUNNY     80  53  39 W3        30.02S
FT RUCKER HELI SUNNY     81  51  35 CALM      30.01S
RUCKER HELI 3  NOT AVBL
RUCKER HELI 2  FAIR      82  51  34 NW6       30.01S
FLORALA APT    SUNNY     80  52  37 VRB3      30.04S
ANDALUSIA      SUNNY     82  53  36 NW5       30.02S
TROY           SUNNY     80  51  36 W3        30.03S
EUFALA         FAIR      85  47  26 CALM      30.00S
MOBILE         PTSUNNY   81  56  42 CALM      30.02S
$$

!GAZ120>161-012300
...Southwest and South Central Georgia...

CITY           SKY/WX    TMP DP  RH WIND       PRES   REMARKS
THOMASVILLE    FAIR      82  55  39 CALM      30.01F
BAINBRIDGE     SUNNY     81  52  36 W6        30.01S
MOODY AFB      SUNNY     83  50  31 NE3       29.98F
VALDOSTA       SUNNY     82  53  36 CALM      29.99F
MOULTRIE       SUNNY     81  50  34 CALM      30.02S
BLAKELY        SUNNY     84  45  24 CALM      30.00F
ALBANY         SUNNY     83  50  31 S7        30.02F
TIFTON         FAIR      81  52  36 CALM      30.01S
FITZGERALD       N/A     84  56  38 CALM      30.04R
CORDELE        FAIR      85  45  24 W6        30.01S
AMERICUS       FAIR      81  41  24 NW3       30.03S
HOMERVILLE     FAIR      86  52  30 NW6       29.99F
$$

!GMZ750-755-770-775-012300
...Coastal and Buoy Obs...

STATION/POSITION TIME  TEMP    WIND        PRES    VSBY  WAVE
                       AIR SEA DIR/SP/G                  HT/PER
                 (UTC) (F)     (DEG/KT/KT) (MB)    (MI)  (FT/S)
KEATON BEACH     2200   80     280/  7/  8 1015.2F
CEDAR KEY        2200   82     310/  6/  8 1015.6F
C TOWER          2200   81      CALM  /  1 1016.6F
APALACHICOLA BUO 2150   80 84   50/  8/ 10 1015.5F         2/ 4
PANAMA CITY BUOY 2150   78 84              1016.3F         1/ 4
MOBILE BUOY      2200   79 84   80/  8/ 12 1015.6F
ORANGE BCH AL BU 2150   78 84  150/  4/  6 1016.9F         1
$$




USA.gov is the U.S. government's official web portal to all federal, state and local government web resources and services.